スミルノワ-チェルヌイフ彗星

74P/Smirnova-Chernykh (2018)

English version
Home page
Updated on February 7, 2017

---------------------------------------------------------------------

・ プロフィール

・ 写真集

・ 軌道要素

Epoch 2018 Feb. 11.0 TT = JDT 2458160.5
T 2018 Jan. 26.70076 TT                                 Nakano
q   3.5364615            (2000.0)            P               Q
n   0.11627522     Peri.   87.13520     -0.95561814     -0.27210551
a   4.1572991      Node    77.05567     +0.20253681     -0.88515072
e   0.1493368      Incl.    6.65391     +0.21394580     -0.37744774
P   8.48
From 2632 observations 1975 Mar. 4-2013 Oct. 6, mean residual 0".7.
     Nongravitational parameters Y1 = +0.03, Y2 = -0.0107.

・ 星図

・ 光度変化

        m1 = 2.0 + 5 logΔ + 20.0 log r

---------------------------------------------------------------------

軌道要素はM.P.E.C. 2015-M77に掲載されたものです。
星図はステラナビゲータ Ver.8 (アストロアーツ) で作成したものです。
光度グラフはComet for Windowsで作成したものです。

---------------------------------------------------------------------

Copyright(C) Seiichi Yoshida (comet@aerith.net). All rights reserved.